This demonstration page uses our WeatherBlox Daily Observations layout. Learn more.

Left ArrowRight Arrow

34.74481, -87.66753

Hourly Observations for December 12, 2018

Temp ( °F °C ) Dew Point ( °F °C ) Humidity (%) Winds ( mph kmh ) Pressure ( in mb ) Visibility ( mi km ) Precip ( " mm )
12:53 am 00:53 Clear 33 0.6 27 -2.8 78 78 SSE 7 11 30.24 1024 10 16 0.00 0.00
1:53 am 01:53 Clear 33 0.6 27 -2.8 78 78 Calm 30.24 1024 10 16 0.00 0.00
2:53 am 02:53 Clear 34 1.1 28 -2.2 79 79 Calm 30.24 1024 10 16 0.00 0.00
3:53 am 03:53 Clear 34 1.1 28 -2.2 79 79 SSE 5 7 30.21 1023 10 16 0.00 0.00
4:53 am 04:53 Clear 35 1.7 28 -2.2 76 76 SSE 6 9 30.20 1023 10 16 0.00 0.00
5:53 am 05:53 Clear 34 1.1 29 -1.7 82 82 SE 3 6 30.20 1023 10 16 0.00 0.00
6:53 am 06:53 Sunny 36 2.2 28 -2.2 73 73 SSW 7 11 30.21 1023 10 16 0.00 0.00
7:53 am 07:53 Sunny 41 5 26 -3.3 55 55 S 6 9 30.21 1023 10 16 0.00 0.00
8:53 am 08:53 Sunny 44 6.7 28 -2.2 53 53 SSE 5 7 30.21 1023 10 16 0.00 0.00
9:53 am 09:53 Sunny 48 8.9 28 -2.2 46 46 WSW 12 19 30.20 1023 10 16 0.00 0.00
10:53 am 10:53 Sunny 50 10 28 -2.2 43 43 S 6 9 30.19 1022 10 16 0.00 0.00
11:53 am 11:53 Mostly Cloudy 52 11.1 28 -2.2 40 40 SSW 7 11 30.15 1021 10 16 0.00 0.00
12:53 pm 12:53 Mostly Cloudy 54 12.2 29 -1.7 38 38 SW 8 13 30.13 1020 10 16 0.00 0.00
1:53 pm 13:53 Mostly Cloudy 55 12.8 28 -2.2 35 35 S 10 17 30.10 1019 10 16 0.00 0.00
2:53 pm 14:53 Cloudy 54 12.2 30 -1.1 40 40 SSE 8 13 30.11 1020 10 16 0.00 0.00
3:53 pm 15:53 Cloudy 52 11.1 31 -0.6 45 45 SSE 7 11 30.11 1020 10 16 0.00 0.00
4:53 pm 16:53 Cloudy 50 10 32 0 50 50 SSE 6 9 30.12 1020 10 16 0.00 0.00
5:53 pm 17:53 Cloudy 50 10 29 -1.7 44 44 S 7 11 30.13 1020 10 16 0.00 0.00
6:53 pm 18:53 Cloudy 50 10 30 -1.1 46 46 S 6 9 30.14 1021 10 16 0.00 0.00
7:53 pm 19:53 Cloudy 50 10 31 -0.6 48 48 S 5 7 30.13 1020 10 16 0.00 0.00
8:53 pm 20:53 Cloudy 50 10 34 1.1 54 54 Calm 30.12 1020 10 16 0.00 0.00
9:53 pm 21:53 Cloudy 48 8.9 37 2.8 66 66 SSE 6 9 30.12 1020 10 16 0.00 0.00
10:53 pm 22:53 Cloudy 47 8.3 37 2.8 69 69 SE 6 9 30.11 1020 10 16 0.00 0.00
11:53 pm 23:53 Cloudy 47 8.3 38 3.3 71 71 SE 7 11 30.10 1019 10 16 0.00 0.00

Powered by AerisWeather